YZ-1 R/B, 66553

Orbit data source: Space-Track

YZ-1 R/B, 66553 is space debris in GEO originally from a launch on Fri, 05 Sep 2025 UTC launched from the Xichang Space Center, China (XSC). Debris objects in space refer to the collection of defunct objects orbiting the Earth. Examples of debris include non-operational satellites, rocket bodies, and fragments generated from explosions, collisions, or faulty payload assembly.

Not visible in the next 10 days
Identifier
66553, 2025-196C
Orbit
GEO
Country
Flag of CNCN / PRC
Related business
Manufacturer
CALT
Mission
Spacecraft
Bus & Motor
YZ-1, Unknown motor
Mass
2,075 kg wet, 2,075 kg dry
Launch date (UTC)
2025-09-05 (9 months ago)
Launch vehicle
Unknown
Launch site
Xichang Space Center, China (XSC)
Object type
Payload
Rocket body
Debris
Shape & HBR
Unknown
Radar Cross Section
RCS unknown

Expand to show TLE details & history
Last TLE update: 5 days ago

TLE from 5 days ago
0 YZ-1 R/B
1 66553U 25196C   26166.89644709 -.00000219  00000-0  00000+0 0  9998
2 66553  28.7125  18.8285 0095026 238.2542 120.8362  0.98089782  2861
Epoch: 2026-06-15T21:30Z
TLE epoch observation values (Epoch: 2026-06-15T21:30:53.028Z)
Latitude
Longitude
151.956°
Altitude
36,621.185 km
Speed
3.037 km/s
True Right ascension
01h 15m 24s
True Declination
0° 00' 00"
Sunlit
Object was in daylight at epoch
Visualization orbit readout
Latitude
Unknown
Longitude
Unknown
Altitude
Unknown
Speed
Unknown
Apparent Right ascension
Unknown
Apparent Declination
Unknown
Sunlit
N/A
Visualization observer readout
Local Sidereal Time
07:18:12
Azimuth
Unknown
Elevation
Unknown
Doppler factor
Unknown
Orbital elements
Apogee altitude
36,816.902 km
Perigee altitude
36,003.699 km
Semi-major axis
42,788.437 km
Eccentricity
0.0095
Inclination
28.7125°
RAAN
18.8285°
Arg. of periapsis
238.2542°
True anomaly
121.76548°
Mean anomaly
120.8362°
Eccentric anomaly
121.30141°
Mean motion
0.24522 °/min
Orbital period
1,468.08 mins
BSTAR
0
Loading maneuver chart data...
Computing Atmospheric mass density...
Loading historical data...
Loading historical data...
Loading historical data...
Loading historical data...
Loading historical data...
Loading historical data...
Loading historical data...
Other satellites on launch #196 in the year 2025 (2025-09-05 UTC)

Documentation

Showing up to 5 results
|